Regional Weather Roundup
Issued by NWS

Home | Current Version | Previous Version | Text Only | Print | Product List | Glossary Off
Versions: 1 2 3 4 5 6 7 8 9 10 11 12 13 14 15 16 17 18 19 20 21 22 23 24 25 26 27 28 29 30 31 32 33 34 35 36 37 38 39 40 41 42 43 44 45 46 47 48 49 50

896
ASUS45 KBOI 251110
RWRID

IDAHO REGIONAL WEATHER ROUNDUP
NATIONAL WEATHER SERVICE BOISE ID
500 AM MDT MON JUL 25 2016

NOTE: "FAIR" INDICATES FEW OR NO CLOUDS BELOW 12000 FEET
WITH NO SIGNIFICANT WEATHER AND/OR OBSTRUCTIONS TO VISIBILITY

IDZ012-014-251200-
SOUTHWEST IDAHO


CITY           SKY/WX    TMP DP  RH WIND       PRES   REMARKS
BOISE          FAIR      66  36  32 SE10      29.99R
CALDWELL       NOT AVBL
MOUNTAIN HOME  FAIR      59  36  42 NE1       30.00R
$$

IDZ016-017-251200-
SOUTHCENTRAL IDAHO


CITY           SKY/WX    TMP DP  RH WIND       PRES   REMARKS
BURLEY         FAIR      51  45  79 CALM      30.07R
JEROME         FAIR      57  38  48 E3        30.07R
TWIN FALLS     FAIR      61  26  26 S9        30.07R
$$

IDZ019>023-251200-
SOUTHEAST IDAHO


CITY           SKY/WX    TMP DP  RH WIND       PRES   REMARKS
IDAHO FALLS    CLOUDY    47  40  76 CALM      30.14R
POCATELLO      CLOUDY    48  36  63 NW5       30.12R
REXBURG        CLOUDY    49  42  77 CALM      30.16R
$$

IDZ006-010-011-018-031-032-251200-
CENTRAL IDAHO MOUNTAINS


CITY           SKY/WX    TMP DP  RH WIND       PRES   REMARKS
MCCALL         FAIR      51  42  71 CALM      30.15R
HAILEY         FAIR      54  36  50 NW9       30.19R
STANLEY        NOT AVBL
SALMON         CLEAR     52  39  62 CALM      30.09R
CHALLIS        FAIR      58  34  40 CALM      30.14R
$$

IDZ002-004-006-007-026-251200-
NORTHERN IDAHO


CITY           SKY/WX    TMP DP  RH WIND       PRES   REMARKS
LEWISTON       FAIR      64  43  46 SE3       29.98R
LOWELL           N/A     56  51  84 NW3       30.06R
COEUR D`ALENE  FAIR      55  48  76 NE5       30.01S
MULLAN PASS    FAIR      59  42  53 S5        30.21R
$$




USA.gov is the U.S. government's official web portal to all federal, state and local government web resources and services.